GFSFLT1_prec_precacc24_057.txt.gz
Total_Precipitation_Accumulation
0.00 0.00 0.00 0.01 0.04 0.00 0.00 0.01 0.15 0.08 0.05 0.02 0.02 0.04 0.05 0.12 0.09 0.08 0.06 0.04 0.05 0.01 0.01 0.00 0.00 0.00 0.00 0.00 0.00 0.00 0.00 0.00
0.00 0.00 0.00 0.00 0.02 0.03 0.00 0.03 0.07 0.02 0.01 0.02 0.01 0.04 0.11 0.18 0.15 0.14 0.13 0.03 0.04 0.01 0.00 0.01 0.00 0.00 0.00 0.00 0.00 0.00 0.00 0.00
0.00 0.00 0.00 0.00 0.00 0.02 0.01 0.03 0.09 0.01 0.01 0.03 0.02 0.03 0.10 0.17 0.14 0.11 0.19 0.12 0.04 0.01 0.02 0.02 0.00 0.00 0.00 0.00 0.00 0.00 0.00 0.00
0.00 0.00 0.00 0.00 0.00 0.00 0.03 0.06 0.12 0.04 0.01 0.00 0.00 0.06 0.12 0.10 0.17 0.17 0.15 0.14 0.13 0.06 0.02 0.00 0.00 0.00 0.00 0.00 0.00 0.00 0.00 0.00
0.01 0.00 0.00 0.01 0.02 0.03 0.06 0.11 0.14 0.04 0.01 0.00 0.01 0.06 0.08 0.16 0.17 0.13 0.10 0.09 0.10 0.09 0.05 0.04 0.00 0.00 0.00 0.00 0.00 0.00 0.00 0.00
0.00 0.01 0.00 0.00 0.04 0.07 0.08 0.11 0.15 0.08 0.01 0.06 0.12 0.14 0.15 0.16 0.13 0.10 0.08 0.08 0.06 0.04 0.03 0.02 0.01 0.00 0.00 0.00 0.00 0.00 0.01 0.00
0.02 0.02 0.01 0.01 0.05 0.08 0.10 0.12 0.19 0.09 0.06 0.07 0.13 0.17 0.13 0.09 0.08 0.06 0.05 0.06 0.04 0.04 0.04 0.03 0.02 0.01 0.00 0.01 0.04 0.03 0.00 0.00
0.02 0.02 0.01 0.02 0.04 0.08 0.08 0.07 0.09 0.09 0.12 0.06 0.04 0.12 0.15 0.12 0.09 0.07 0.06 0.05 0.03 0.06 0.09 0.08 0.05 0.06 0.08 0.04 0.01 0.00 0.00 0.01
0.01 0.01 0.02 0.02 0.07 0.18 0.12 0.11 0.11 0.07 0.11 0.16 0.18 0.19 0.19 0.18 0.19 0.13 0.08 0.08 0.12 0.21 0.27 0.25 0.20 0.12 0.04 0.05 0.04 0.00 0.01 0.01
0.00 0.00 0.02 0.02 0.02 0.15 0.20 0.13 0.12 0.08 0.10 0.16 0.23 0.32 0.34 0.30 0.25 0.21 0.17 0.12 0.09 0.17 0.25 0.18 0.15 0.17 0.11 0.06 0.03 0.02 0.02 0.02
0.00 0.00 0.00 0.01 0.01 0.05 0.06 0.05 0.10 0.10 0.07 0.09 0.15 0.24 0.29 0.28 0.29 0.29 0.22 0.16 0.13 0.13 0.14 0.18 0.16 0.11 0.08 0.07 0.04 0.03 0.04 0.07
0.00 0.00 0.00 0.00 0.00 0.01 0.00 0.02 0.03 0.02 0.06 0.15 0.20 0.25 0.24 0.25 0.27 0.23 0.15 0.09 0.07 0.07 0.07 0.08 0.09 0.11 0.11 0.08 0.06 0.05 0.06 0.03
0.00 0.00 0.00 0.00 0.00 0.00 0.00 0.02 0.07 0.13 0.16 0.21 0.27 0.29 0.29 0.24 0.18 0.13 0.09 0.05 0.03 0.04 0.06 0.05 0.04 0.05 0.06 0.06 0.07 0.06 0.03 0.01
0.00 0.00 0.00 0.00 0.00 0.01 0.04 0.09 0.13 0.15 0.15 0.20 0.26 0.21 0.19 0.16 0.11 0.06 0.03 0.01 0.02 0.02 0.02 0.03 0.04 0.05 0.10 0.10 0.06 0.04 0.01 0.00
0.00 0.00 0.00 0.00 0.03 0.09 0.10 0.10 0.13 0.16 0.15 0.15 0.14 0.17 0.13 0.07 0.04 0.01 0.01 0.01 0.01 0.02 0.02 0.03 0.06 0.08 0.07 0.05 0.03 0.01 0.00 0.00
0.01 0.01 0.03 0.04 0.07 0.10 0.11 0.12 0.11 0.11 0.14 0.12 0.10 0.06 0.03 0.01 0.00 0.00 0.01 0.01 0.01 0.00 0.02 0.07 0.06 0.04 0.04 0.02 0.01 0.00 0.00 0.00
0.00 0.01 0.03 0.04 0.06 0.08 0.08 0.06 0.06 0.07 0.11 0.06 0.04 0.01 0.00 0.00 0.00 0.00 0.00 0.00 0.02 0.07 0.10 0.08 0.06 0.03 0.02 0.00 0.00 0.00 0.00 0.00
0.00 0.00 0.00 0.00 0.01 0.04 0.04 0.04 0.04 0.04 0.02 0.01 0.00 0.00 0.00 0.00 0.00 0.00 0.03 0.11 0.16 0.15 0.14 0.10 0.04 0.01 0.01 0.00 0.00 0.00 0.00 0.00
0.00 0.00 0.00 0.00 0.00 0.01 0.02 0.01 0.01 0.01 0.00 0.00 0.00 0.00 0.00 0.00 0.04 0.12 0.19 0.19 0.17 0.11 0.03 0.00 0.00 0.00 0.00 0.00 0.00 0.00 0.00 0.00

GFSFLT1_prec_precacc24_060.txt.gz
Total_Precipitation_Accumulation
0.00 0.00 0.00 0.01 0.04 0.00 0.00 0.01 0.09 0.02 0.05 0.03 0.03 0.07 0.06 0.12 0.09 0.08 0.07 0.06 0.08 0.02 0.01 0.01 0.00 0.00 0.00 0.00 0.00 0.00 0.00 0.00
0.00 0.00 0.00 0.00 0.02 0.03 0.00 0.01 0.06 0.01 0.02 0.02 0.01 0.05 0.11 0.18 0.15 0.15 0.14 0.07 0.13 0.11 0.07 0.10 0.01 0.00 0.00 0.00 0.00 0.00 0.00 0.00
0.00 0.00 0.00 0.00 0.00 0.02 0.00 0.00 0.08 0.01 0.01 0.03 0.02 0.03 0.10 0.17 0.14 0.12 0.22 0.15 0.10 0.06 0.09 0.16 0.05 0.05 0.00 0.00 0.00 0.00 0.00 0.00
0.00 0.00 0.00 0.00 0.00 0.00 0.02 0.03 0.11 0.04 0.01 0.00 0.00 0.06 0.12 0.10 0.17 0.17 0.16 0.15 0.20 0.10 0.06 0.08 0.07 0.03 0.00 0.00 0.00 0.00 0.00 0.00
0.01 0.00 0.00 0.00 0.00 0.01 0.04 0.09 0.14 0.04 0.01 0.00 0.01 0.06 0.08 0.16 0.17 0.13 0.10 0.09 0.11 0.12 0.09 0.10 0.14 0.12 0.10 0.03 0.00 0.00 0.00 0.00
0.00 0.01 0.00 0.00 0.03 0.05 0.07 0.10 0.11 0.06 0.01 0.06 0.12 0.14 0.15 0.16 0.13 0.10 0.08 0.08 0.07 0.05 0.03 0.02 0.03 0.02 0.02 0.03 0.03 0.02 0.03 0.01
0.02 0.02 0.01 0.01 0.05 0.08 0.08 0.08 0.17 0.09 0.06 0.07 0.13 0.17 0.13 0.09 0.08 0.09 0.06 0.07 0.06 0.04 0.04 0.03 0.03 0.03 0.04 0.12 0.20 0.14 0.14 0.07
0.02 0.02 0.01 0.02 0.04 0.08 0.08 0.07 0.09 0.09 0.12 0.06 0.04 0.12 0.15 0.13 0.10 0.16 0.11 0.06 0.05 0.08 0.10 0.08 0.06 0.10 0.18 0.17 0.13 0.12 0.10 0.09
0.01 0.01 0.02 0.02 0.07 0.18 0.12 0.11 0.11 0.07 0.11 0.16 0.19 0.24 0.27 0.36 0.29 0.26 0.16 0.16 0.17 0.27 0.30 0.26 0.21 0.17 0.16 0.20 0.27 0.30 0.22 0.09
0.00 0.01 0.02 0.02 0.02 0.15 0.20 0.13 0.12 0.08 0.10 0.16 0.24 0.34 0.36 0.30 0.27 0.29 0.27 0.18 0.12 0.21 0.27 0.19 0.17 0.20 0.21 0.21 0.17 0.11 0.05 0.05
0.00 0.00 0.00 0.01 0.01 0.05 0.06 0.05 0.10 0.10 0.07 0.10 0.15 0.26 0.33 0.33 0.52 0.44 0.34 0.21 0.18 0.16 0.15 0.18 0.16 0.13 0.13 0.12 0.07 0.05 0.06 0.09
0.00 0.00 0.00 0.00 0.00 0.01 0.00 0.02 0.03 0.02 0.06 0.17 0.26 0.32 0.50 0.54 0.36 0.31 0.24 0.15 0.08 0.07 0.07 0.09 0.12 0.15 0.15 0.11 0.08 0.07 0.07 0.04
0.00 0.00 0.00 0.00 0.00 0.00 0.00 0.02 0.07 0.14 0.24 0.47 0.42 0.54 0.40 0.32 0.24 0.18 0.12 0.06 0.04 0.05 0.07 0.07 0.08 0.11 0.10 0.08 0.08 0.06 0.03 0.01
0.00 0.00 0.00 0.00 0.00 0.01 0.06 0.09 0.14 0.24 0.37 0.33 0.45 0.43 0.23 0.20 0.15 0.09 0.04 0.03 0.03 0.03 0.03 0.03 0.05 0.06 0.10 0.11 0.07 0.04 0.01 0.00
0.00 0.00 0.00 0.00 0.03 0.09 0.11 0.10 0.16 0.18 0.20 0.25 0.22 0.18 0.17 0.10 0.06 0.04 0.02 0.02 0.02 0.02 0.02 0.03 0.06 0.08 0.07 0.06 0.03 0.01 0.00 0.00
0.01 0.01 0.03 0.04 0.07 0.10 0.11 0.14 0.12 0.14 0.18 0.15 0.13 0.07 0.06 0.02 0.01 0.01 0.01 0.01 0.01 0.00 0.02 0.07 0.06 0.04 0.04 0.03 0.01 0.00 0.00 0.00
0.00 0.01 0.03 0.04 0.06 0.08 0.10 0.08 0.08 0.08 0.14 0.10 0.06 0.03 0.01 0.00 0.00 0.00 0.00 0.00 0.02 0.07 0.10 0.08 0.06 0.04 0.03 0.01 0.00 0.00 0.00 0.00
0.00 0.00 0.02 0.09 0.05 0.05 0.05 0.05 0.05 0.06 0.05 0.02 0.00 0.00 0.00 0.00 0.00 0.00 0.03 0.11 0.16 0.15 0.14 0.10 0.04 0.01 0.01 0.00 0.00 0.00 0.00 0.00
0.00 0.00 0.05 0.03 0.01 0.02 0.03 0.03 0.02 0.02 0.01 0.00 0.00 0.00 0.00 0.00 0.04 0.12 0.19 0.19 0.17 0.11 0.03 0.00 0.00 0.00 0.00 0.00 0.00 0.00 0.00 0.00

GFSFLT1_prec_precacc24_063.txt.gz
Total_Precipitation_Accumulation
0.00 0.00 0.00 0.00 0.00 0.00 0.00 0.00 0.00 0.00 0.04 0.02 0.02 0.08 0.06 0.12 0.09 0.09 0.08 0.06 0.08 0.02 0.01 0.01 0.00 0.00 0.00 0.00 0.00 0.00 0.00 0.00
0.00 0.00 0.00 0.00 0.00 0.00 0.00 0.00 0.00 0.00 0.01 0.01 0.01 0.05 0.11 0.18 0.15 0.15 0.15 0.08 0.13 0.11 0.07 0.10 0.01 0.01 0.00 0.00 0.00 0.00 0.00 0.00
0.00 0.00 0.00 0.00 0.00 0.01 0.00 0.00 0.01 0.00 0.01 0.02 0.02 0.03 0.10 0.17 0.14 0.12 0.22 0.15 0.11 0.07 0.13 0.26 0.12 0.09 0.01 0.00 0.00 0.00 0.00 0.00
0.00 0.00 0.00 0.00 0.00 0.00 0.01 0.02 0.05 0.03 0.01 0.00 0.00 0.06 0.12 0.10 0.17 0.17 0.16 0.15 0.20 0.13 0.16 0.20 0.15 0.08 0.03 0.00 0.00 0.00 0.00 0.00
0.01 0.00 0.00 0.00 0.00 0.00 0.02 0.05 0.09 0.03 0.00 0.00 0.01 0.06 0.08 0.16 0.17 0.13 0.10 0.09 0.11 0.12 0.15 0.16 0.18 0.13 0.11 0.05 0.02 0.01 0.03 0.06
0.00 0.01 0.00 0.00 0.02 0.03 0.05 0.08 0.09 0.04 0.01 0.06 0.12 0.14 0.15 0.16 0.13 0.10 0.08 0.08 0.07 0.05 0.03 0.03 0.03 0.03 0.02 0.04 0.05 0.12 0.19 0.21
0.02 0.02 0.01 0.00 0.03 0.07 0.08 0.07 0.14 0.09 0.06 0.07 0.13 0.17 0.14 0.10 0.08 0.09 0.06 0.07 0.07 0.07 0.05 0.03 0.03 0.03 0.04 0.12 0.27 0.30 0.27 0.24
0.02 0.01 0.00 0.02 0.03 0.08 0.08 0.07 0.09 0.09 0.12 0.07 0.05 0.12 0.16 0.16 0.12 0.17 0.12 0.06 0.06 0.13 0.18 0.11 0.06 0.11 0.19 0.18 0.15 0.16 0.16 0.17
0.01 0.01 0.02 0.03 0.07 0.18 0.12 0.11 0.11 0.07 0.11 0.16 0.20 0.25 0.31 0.37 0.35 0.29 0.17 0.19 0.23 0.39 0.48 0.40 0.27 0.18 0.16 0.20 0.27 0.30 0.25 0.18
0.00 0.01 0.02 0.03 0.03 0.15 0.20 0.13 0.12 0.08 0.10 0.16 0.24 0.36 0.39 0.30 0.30 0.48 0.36 0.25 0.17 0.32 0.44 0.28 0.20 0.20 0.22 0.22 0.18 0.15 0.12 0.07
0.00 0.00 0.00 0.01 0.01 0.06 0.08 0.07 0.11 0.10 0.08 0.10 0.15 0.27 0.37 0.38 0.69 0.91 0.96 0.68 0.40 0.24 0.22 0.20 0.17 0.13 0.13 0.15 0.15 0.12 0.09 0.09
0.00 0.00 0.01 0.00 0.00 0.01 0.02 0.05 0.07 0.04 0.10 0.20 0.33 0.39 0.56 0.74 0.64 0.89 0.51 0.30 0.19 0.13 0.08 0.09 0.12 0.15 0.16 0.14 0.12 0.10 0.08 0.05
0.00 0.00 0.01 0.00 0.00 0.00 0.00 0.04 0.14 0.28 0.40 0.87 0.82 0.97 0.90 0.82 0.86 0.73 0.30 0.12 0.12 0.07 0.07 0.08 0.09 0.11 0.10 0.08 0.08 0.06 0.04 0.02
0.00 0.00 0.00 0.00 0.01 0.03 0.15 0.49 0.82 0.70 0.77 0.68 0.67 0.79 0.47 0.39 0.24 0.15 0.08 0.06 0.04 0.04 0.03 0.04 0.05 0.06 0.11 0.13 0.10 0.06 0.02 0.01
0.00 0.00 0.00 0.00 0.04 0.13 0.20 0.37 0.40 0.38 0.43 0.41 0.32 0.29 0.23 0.11 0.08 0.05 0.04 0.02 0.03 0.03 0.03 0.03 0.07 0.10 0.10 0.07 0.04 0.01 0.00 0.00
0.01 0.01 0.01 0.02 0.06 0.09 0.10 0.15 0.18 0.21 0.23 0.19 0.15 0.09 0.08 0.05 0.03 0.03 0.02 0.01 0.01 0.01 0.03 0.08 0.07 0.05 0.04 0.03 0.01 0.00 0.00 0.00
0.00 0.00 0.01 0.03 0.04 0.07 0.10 0.09 0.11 0.10 0.17 0.13 0.07 0.03 0.01 0.02 0.01 0.00 0.00 0.00 0.02 0.07 0.10 0.08 0.06 0.04 0.03 0.01 0.00 0.00 0.00 0.00
0.00 0.00 0.02 0.11 0.05 0.05 0.06 0.07 0.07 0.08 0.07 0.03 0.01 0.02 0.01 0.01 0.00 0.00 0.03 0.11 0.16 0.15 0.14 0.10 0.04 0.01 0.01 0.00 0.00 0.00 0.00 0.00
0.00 0.00 0.08 0.06 0.01 0.01 0.02 0.03 0.03 0.02 0.01 0.00 0.00 0.01 0.00 0.00 0.04 0.12 0.19 0.19 0.17 0.11 0.03 0.00 0.00 0.00 0.00 0.00 0.00 0.00 0.00 0.00

GFSFLT1_prec_precacc24_069.txt.gz
Total_Precipitation_Accumulation
0.00 0.00 0.00 0.00 0.00 0.00 0.02 0.07 0.06 0.05 0.05 0.03 0.02 0.05 0.05 0.12 0.09 0.09 0.08 0.06 0.08 0.02 0.01 0.01 0.00 0.00 0.00 0.00 0.00 0.00 0.00 0.00
0.00 0.00 0.00 0.00 0.00 0.00 0.01 0.02 0.00 0.00 0.01 0.01 0.01 0.05 0.11 0.18 0.15 0.15 0.15 0.08 0.13 0.11 0.07 0.10 0.01 0.01 0.00 0.00 0.00 0.00 0.00 0.00
0.00 0.00 0.00 0.00 0.00 0.00 0.00 0.00 0.00 0.00 0.00 0.00 0.02 0.03 0.10 0.17 0.14 0.12 0.22 0.15 0.11 0.07 0.13 0.26 0.12 0.09 0.02 0.02 0.00 0.00 0.00 0.00
0.00 0.00 0.00 0.00 0.00 0.00 0.00 0.00 0.00 0.00 0.00 0.00 0.00 0.05 0.12 0.10 0.17 0.17 0.16 0.15 0.20 0.13 0.16 0.20 0.15 0.08 0.03 0.01 0.01 0.00 0.00 0.00
0.00 0.00 0.00 0.00 0.00 0.00 0.00 0.00 0.00 0.00 0.00 0.00 0.01 0.04 0.05 0.15 0.17 0.13 0.10 0.09 0.11 0.12 0.15 0.16 0.18 0.13 0.12 0.07 0.02 0.02 0.05 0.08
0.00 0.00 0.00 0.00 0.00 0.00 0.00 0.02 0.02 0.00 0.00 0.01 0.07 0.10 0.13 0.16 0.13 0.10 0.08 0.08 0.07 0.05 0.04 0.03 0.03 0.04 0.06 0.07 0.07 0.14 0.22 0.26
0.00 0.00 0.00 0.00 0.00 0.00 0.00 0.00 0.06 0.06 0.04 0.05 0.07 0.14 0.13 0.09 0.08 0.09 0.06 0.07 0.07 0.07 0.05 0.04 0.04 0.07 0.07 0.14 0.29 0.33 0.29 0.27
0.00 0.00 0.00 0.00 0.00 0.00 0.01 0.01 0.03 0.06 0.11 0.06 0.03 0.10 0.14 0.15 0.12 0.17 0.12 0.06 0.06 0.15 0.22 0.19 0.13 0.15 0.27 0.25 0.19 0.19 0.20 0.21
0.00 0.00 0.00 0.00 0.01 0.04 0.01 0.02 0.05 0.05 0.10 0.16 0.17 0.23 0.31 0.37 0.36 0.30 0.19 0.21 0.24 0.39 0.52 0.54 0.46 0.35 0.33 0.33 0.34 0.35 0.28 0.21
0.00 0.01 0.00 0.00 0.01 0.05 0.07 0.03 0.05 0.03 0.06 0.12 0.19 0.31 0.37 0.30 0.34 0.56 0.41 0.37 0.27 0.37 0.47 0.39 0.40 0.36 0.38 0.34 0.23 0.17 0.16 0.17
0.00 0.00 0.00 0.00 0.02 0.07 0.12 0.07 0.06 0.05 0.05 0.07 0.12 0.22 0.38 0.47 0.78 1.08 1.22 0.98 0.74 0.47 0.50 0.45 0.34 0.24 0.22 0.18 0.16 0.13 0.11 0.11
0.00 0.00 0.01 0.00 0.00 0.05 0.12 0.17 0.13 0.05 0.09 0.17 0.30 0.36 0.56 0.89 0.85 1.16 0.94 0.89 0.94 0.77 0.48 0.41 0.22 0.24 0.23 0.16 0.13 0.10 0.08 0.06
0.00 0.00 0.01 0.00 0.00 0.01 0.06 0.25 0.46 0.60 0.57 0.97 0.89 1.04 1.20 1.10 1.37 1.94 1.32 0.95 0.68 0.47 0.29 0.16 0.12 0.13 0.11 0.08 0.08 0.08 0.06 0.04
0.00 0.00 0.00 0.00 0.01 0.04 0.19 0.69 1.08 0.87 0.93 0.94 1.05 1.47 0.95 0.57 0.42 0.34 0.30 0.21 0.13 0.07 0.06 0.08 0.09 0.10 0.14 0.16 0.14 0.09 0.06 0.04
0.00 0.00 0.00 0.00 0.03 0.10 0.18 0.41 0.63 0.66 0.65 0.65 0.61 0.59 0.58 0.36 0.29 0.20 0.12 0.10 0.12 0.06 0.07 0.08 0.10 0.12 0.13 0.11 0.07 0.03 0.01 0.01
0.00 0.00 0.01 0.02 0.04 0.05 0.05 0.14 0.19 0.23 0.26 0.24 0.22 0.18 0.16 0.14 0.13 0.07 0.05 0.04 0.04 0.05 0.07 0.11 0.09 0.07 0.07 0.05 0.02 0.01 0.01 0.01
0.00 0.00 0.00 0.01 0.01 0.03 0.06 0.08 0.10 0.10 0.18 0.16 0.11 0.06 0.08 0.08 0.07 0.07 0.03 0.03 0.06 0.09 0.12 0.12 0.08 0.05 0.08 0.04 0.01 0.00 0.00 0.00
0.00 0.00 0.02 0.11 0.04 0.04 0.02 0.05 0.06 0.08 0.09 0.07 0.06 0.08 0.06 0.04 0.04 0.04 0.04 0.07 0.14 0.16 0.17 0.12 0.05 0.02 0.03 0.01 0.00 0.00 0.00 0.00
0.00 0.00 0.08 0.06 0.01 0.01 0.01 0.02 0.02 0.02 0.03 0.03 0.04 0.06 0.05 0.03 0.02 0.05 0.11 0.18 0.20 0.13 0.05 0.02 0.01 0.01 0.01 0.00 0.00 0.00 0.00 0.00

GFSFLT1_prec_precacc24_072.txt.gz
Total_Precipitation_Accumulation
0.00 0.00 0.00 0.00 0.00 0.00 0.02 0.08 0.19 0.25 0.10 0.06 0.10 0.13 0.09 0.13 0.11 0.09 0.08 0.06 0.08 0.02 0.01 0.01 0.00 0.00 0.00 0.00 0.00 0.00 0.00 0.00
0.00 0.00 0.00 0.00 0.00 0.00 0.01 0.02 0.03 0.09 0.09 0.02 0.07 0.07 0.11 0.15 0.16 0.16 0.15 0.08 0.13 0.11 0.07 0.10 0.01 0.01 0.00 0.00 0.00 0.00 0.00 0.00
0.00 0.00 0.00 0.00 0.00 0.00 0.00 0.00 0.00 0.00 0.01 0.01 0.03 0.05 0.05 0.12 0.15 0.13 0.23 0.16 0.12 0.08 0.13 0.27 0.13 0.10 0.02 0.02 0.00 0.00 0.00 0.00
0.00 0.00 0.00 0.00 0.00 0.00 0.00 0.00 0.00 0.00 0.00 0.00 0.01 0.02 0.06 0.07 0.17 0.18 0.17 0.16 0.21 0.15 0.19 0.21 0.15 0.08 0.03 0.01 0.01 0.00 0.00 0.01
0.00 0.00 0.00 0.00 0.00 0.00 0.00 0.00 0.00 0.00 0.00 0.00 0.00 0.01 0.01 0.11 0.16 0.13 0.10 0.10 0.12 0.12 0.15 0.16 0.18 0.13 0.12 0.07 0.02 0.02 0.05 0.09
0.00 0.00 0.00 0.00 0.00 0.00 0.00 0.00 0.00 0.00 0.00 0.00 0.00 0.00 0.04 0.12 0.12 0.10 0.08 0.08 0.07 0.05 0.04 0.03 0.03 0.04 0.06 0.08 0.08 0.15 0.22 0.26
0.00 0.00 0.00 0.00 0.00 0.00 0.00 0.00 0.00 0.00 0.04 0.04 0.02 0.02 0.04 0.05 0.06 0.08 0.06 0.07 0.07 0.07 0.05 0.04 0.04 0.07 0.07 0.16 0.33 0.34 0.30 0.28
0.00 0.00 0.00 0.00 0.00 0.00 0.00 0.00 0.00 0.01 0.06 0.05 0.02 0.03 0.05 0.10 0.10 0.17 0.12 0.06 0.06 0.15 0.22 0.19 0.13 0.14 0.24 0.24 0.19 0.21 0.26 0.27
0.00 0.00 0.00 0.00 0.00 0.00 0.00 0.00 0.00 0.00 0.04 0.11 0.14 0.15 0.21 0.30 0.31 0.30 0.19 0.21 0.24 0.38 0.51 0.52 0.43 0.32 0.33 0.36 0.38 0.41 0.38 0.29
0.00 0.01 0.00 0.00 0.01 0.00 0.00 0.00 0.02 0.01 0.04 0.06 0.10 0.18 0.23 0.16 0.26 0.54 0.40 0.36 0.26 0.32 0.37 0.35 0.39 0.35 0.39 0.51 0.48 0.35 0.23 0.18
0.00 0.00 0.00 0.00 0.01 0.05 0.10 0.05 0.04 0.04 0.04 0.03 0.04 0.13 0.27 0.37 0.70 1.03 1.18 0.96 0.72 0.45 0.52 0.51 0.36 0.24 0.23 0.23 0.24 0.19 0.13 0.11
0.00 0.00 0.01 0.00 0.00 0.04 0.12 0.21 0.18 0.04 0.07 0.12 0.25 0.30 0.48 0.82 0.78 1.11 0.91 0.88 0.94 0.80 0.60 0.61 0.50 0.40 0.29 0.22 0.19 0.16 0.11 0.07
0.00 0.00 0.01 0.00 0.00 0.01 0.07 0.27 0.47 0.60 0.50 0.89 0.78 0.93 1.12 1.05 1.33 1.91 1.30 0.95 0.70 0.47 0.32 0.24 0.21 0.22 0.20 0.13 0.12 0.11 0.09 0.06
0.00 0.00 0.00 0.00 0.01 0.03 0.17 0.64 1.04 0.84 0.88 0.86 0.97 1.41 0.92 0.55 0.41 0.34 0.30 0.23 0.16 0.09 0.07 0.08 0.10 0.11 0.16 0.17 0.16 0.14 0.09 0.07
0.00 0.00 0.00 0.00 0.02 0.05 0.13 0.37 0.57 0.57 0.61 0.60 0.57 0.56 0.57 0.36 0.29 0.23 0.24 0.21 0.19 0.13 0.11 0.12 0.11 0.12 0.13 0.12 0.09 0.06 0.05 0.05
0.00 0.00 0.00 0.00 0.01 0.02 0.03 0.10 0.14 0.18 0.23 0.20 0.19 0.18 0.16 0.14 0.14 0.08 0.07 0.04 0.04 0.07 0.10 0.14 0.13 0.09 0.09 0.07 0.03 0.04 0.05 0.06
0.00 0.00 0.00 0.00 0.00 0.03 0.05 0.07 0.10 0.09 0.16 0.14 0.11 0.12 0.13 0.10 0.08 0.09 0.06 0.06 0.08 0.07 0.08 0.11 0.10 0.08 0.15 0.08 0.04 0.02 0.02 0.03
0.00 0.00 0.02 0.11 0.04 0.04 0.02 0.05 0.06 0.08 0.08 0.06 0.07 0.10 0.09 0.10 0.06 0.07 0.12 0.12 0.14 0.15 0.18 0.15 0.09 0.05 0.09 0.04 0.05 0.02 0.03 0.02
0.00 0.00 0.08 0.06 0.01 0.01 0.01 0.02 0.02 0.02 0.03 0.03 0.04 0.07 0.07 0.05 0.04 0.06 0.10 0.17 0.21 0.16 0.09 0.06 0.05 0.05 0.06 0.03 0.03 0.01 0.02 0.01

GFSFLT1_prec_precacc24_075.txt.gz
Total_Precipitation_Accumulation
0.00 0.00 0.00 0.00 0.00 0.01 0.02 0.09 0.26 0.39 0.13 0.09 0.15 0.20 0.28 0.23 0.07 0.03 0.06 0.05 0.07 0.01 0.00 0.01 0.00 0.00 0.00 0.00 0.00 0.00 0.00 0.00
0.00 0.00 0.00 0.00 0.00 0.01 0.01 0.02 0.04 0.14 0.11 0.03 0.10 0.17 0.26 0.25 0.14 0.07 0.12 0.08 0.13 0.11 0.07 0.10 0.01 0.01 0.00 0.01 0.01 0.00 0.00 0.00
0.00 0.00 0.00 0.00 0.00 0.00 0.01 0.00 0.00 0.01 0.02 0.01 0.03 0.08 0.13 0.16 0.17 0.07 0.18 0.16 0.12 0.08 0.13 0.27 0.14 0.10 0.02 0.02 0.01 0.01 0.01 0.00
0.00 0.00 0.00 0.00 0.00 0.00 0.00 0.00 0.00 0.00 0.01 0.01 0.04 0.16 0.16 0.12 0.21 0.15 0.16 0.16 0.21 0.15 0.19 0.23 0.16 0.09 0.05 0.02 0.01 0.00 0.00 0.01
0.00 0.00 0.00 0.00 0.00 0.00 0.00 0.00 0.00 0.00 0.00 0.00 0.01 0.05 0.08 0.06 0.08 0.12 0.11 0.10 0.13 0.13 0.15 0.17 0.21 0.16 0.13 0.08 0.02 0.02 0.05 0.09
0.00 0.00 0.00 0.00 0.00 0.00 0.00 0.00 0.00 0.00 0.00 0.00 0.00 0.00 0.01 0.05 0.07 0.08 0.07 0.08 0.07 0.06 0.05 0.05 0.04 0.06 0.08 0.11 0.12 0.17 0.23 0.27
0.00 0.00 0.00 0.00 0.00 0.00 0.00 0.00 0.00 0.00 0.00 0.02 0.01 0.00 0.01 0.01 0.01 0.04 0.04 0.06 0.07 0.07 0.05 0.05 0.04 0.07 0.08 0.17 0.36 0.36 0.32 0.29
0.00 0.00 0.00 0.00 0.00 0.00 0.00 0.00 0.00 0.00 0.02 0.02 0.01 0.01 0.03 0.04 0.04 0.13 0.11 0.05 0.05 0.15 0.22 0.19 0.13 0.14 0.23 0.22 0.20 0.24 0.30 0.30
0.00 0.00 0.00 0.00 0.00 0.00 0.00 0.00 0.00 0.00 0.02 0.04 0.08 0.12 0.17 0.20 0.18 0.22 0.16 0.18 0.22 0.38 0.51 0.50 0.41 0.31 0.32 0.36 0.38 0.41 0.39 0.31
0.00 0.01 0.00 0.00 0.01 0.00 0.00 0.00 0.02 0.01 0.04 0.05 0.06 0.13 0.13 0.03 0.13 0.41 0.31 0.33 0.26 0.31 0.36 0.34 0.39 0.35 0.38 0.51 0.48 0.36 0.25 0.21
0.00 0.00 0.00 0.00 0.01 0.05 0.09 0.05 0.03 0.03 0.03 0.02 0.01 0.07 0.18 0.24 0.57 0.91 1.10 0.91 0.70 0.44 0.52 0.50 0.36 0.23 0.22 0.23 0.24 0.21 0.18 0.15
0.00 0.00 0.01 0.00 0.00 0.04 0.12 0.21 0.20 0.06 0.04 0.06 0.18 0.23 0.38 0.71 0.67 1.02 0.85 0.85 0.93 0.79 0.59 0.59 0.50 0.41 0.34 0.29 0.23 0.19 0.16 0.11
0.00 0.00 0.01 0.00 0.00 0.01 0.07 0.27 0.46 0.60 0.50 0.81 0.68 0.80 0.99 0.94 1.25 1.86 1.27 0.94 0.69 0.46 0.31 0.23 0.23 0.27 0.29 0.21 0.17 0.15 0.15 0.13
0.00 0.00 0.00 0.00 0.01 0.03 0.17 0.63 1.00 0.80 0.87 0.80 0.85 1.32 0.83 0.48 0.36 0.32 0.30 0.22 0.16 0.09 0.06 0.07 0.07 0.10 0.16 0.25 0.29 0.27 0.22 0.14
0.00 0.00 0.00 0.00 0.01 0.04 0.11 0.35 0.56 0.55 0.57 0.55 0.51 0.48 0.49 0.32 0.27 0.23 0.24 0.21 0.19 0.13 0.11 0.11 0.11 0.12 0.14 0.12 0.10 0.08 0.07 0.07
0.00 0.00 0.00 0.00 0.00 0.01 0.02 0.10 0.14 0.16 0.21 0.19 0.17 0.18 0.15 0.13 0.14 0.08 0.07 0.04 0.04 0.07 0.09 0.13 0.15 0.12 0.12 0.11 0.06 0.05 0.06 0.08
0.00 0.00 0.00 0.00 0.00 0.03 0.05 0.07 0.10 0.09 0.16 0.13 0.11 0.12 0.13 0.10 0.08 0.09 0.06 0.05 0.07 0.07 0.07 0.10 0.09 0.09 0.17 0.11 0.06 0.03 0.04 0.05
0.00 0.00 0.02 0.11 0.04 0.04 0.02 0.05 0.06 0.08 0.08 0.06 0.07 0.10 0.09 0.10 0.08 0.08 0.13 0.11 0.11 0.10 0.11 0.10 0.07 0.07 0.13 0.07 0.07 0.03 0.05 0.04
0.00 0.00 0.08 0.06 0.01 0.01 0.01 0.02 0.02 0.02 0.03 0.03 0.04 0.07 0.07 0.05 0.05 0.05 0.08 0.12 0.12 0.09 0.07 0.09 0.09 0.10 0.12 0.06 0.05 0.01 0.03 0.03

GFSFLT1_prec_precacc24_078.txt.gz
Total_Precipitation_Accumulation
0.00 0.00 0.00 0.00 0.00 0.01 0.03 0.10 0.27 0.42 0.16 0.11 0.24 0.41 0.39 0.26 0.08 0.01 0.02 0.02 0.04 0.00 0.00 0.01 0.00 0.00 0.00 0.00 0.00 0.00 0.00 0.00
0.00 0.00 0.00 0.00 0.00 0.01 0.02 0.03 0.05 0.15 0.12 0.04 0.16 0.34 0.38 0.28 0.14 0.02 0.03 0.05 0.11 0.11 0.07 0.10 0.01 0.01 0.00 0.01 0.01 0.00 0.00 0.00
0.00 0.00 0.00 0.00 0.00 0.00 0.01 0.00 0.00 0.01 0.02 0.01 0.04 0.14 0.28 0.21 0.16 0.03 0.06 0.06 0.10 0.08 0.13 0.27 0.14 0.10 0.02 0.02 0.02 0.02 0.03 0.02
0.00 0.00 0.00 0.00 0.00 0.00 0.00 0.00 0.00 0.00 0.01 0.01 0.04 0.17 0.27 0.22 0.19 0.04 0.03 0.07 0.18 0.14 0.19 0.23 0.16 0.09 0.05 0.02 0.01 0.00 0.01 0.02
0.00 0.00 0.00 0.00 0.00 0.00 0.00 0.00 0.00 0.00 0.00 0.00 0.01 0.05 0.12 0.07 0.04 0.03 0.03 0.06 0.11 0.13 0.15 0.17 0.21 0.16 0.13 0.08 0.04 0.03 0.05 0.09
0.00 0.00 0.00 0.00 0.00 0.00 0.00 0.00 0.00 0.00 0.00 0.00 0.00 0.01 0.03 0.06 0.06 0.04 0.03 0.04 0.05 0.05 0.05 0.05 0.04 0.06 0.08 0.12 0.13 0.17 0.23 0.27
0.00 0.00 0.00 0.00 0.00 0.00 0.00 0.00 0.00 0.00 0.00 0.00 0.00 0.00 0.02 0.03 0.03 0.04 0.01 0.02 0.05 0.07 0.05 0.05 0.05 0.07 0.09 0.19 0.38 0.37 0.32 0.31
0.00 0.00 0.00 0.00 0.00 0.00 0.00 0.00 0.00 0.00 0.00 0.00 0.00 0.00 0.01 0.04 0.03 0.11 0.06 0.02 0.03 0.13 0.20 0.19 0.15 0.16 0.28 0.29 0.26 0.29 0.31 0.32
0.00 0.00 0.00 0.00 0.00 0.00 0.00 0.00 0.00 0.00 0.00 0.00 0.02 0.08 0.14 0.19 0.17 0.18 0.11 0.13 0.14 0.34 0.50 0.51 0.41 0.33 0.35 0.40 0.42 0.44 0.40 0.31
0.00 0.01 0.00 0.00 0.01 0.00 0.00 0.00 0.00 0.00 0.00 0.00 0.04 0.07 0.06 0.01 0.10 0.38 0.26 0.27 0.20 0.27 0.32 0.31 0.39 0.35 0.38 0.51 0.47 0.34 0.25 0.21
0.00 0.00 0.00 0.00 0.01 0.05 0.09 0.05 0.01 0.00 0.00 0.01 0.00 0.06 0.15 0.22 0.54 0.85 1.04 0.85 0.65 0.38 0.41 0.44 0.34 0.21 0.18 0.18 0.21 0.20 0.17 0.14
0.00 0.00 0.01 0.00 0.00 0.04 0.12 0.21 0.20 0.06 0.04 0.06 0.17 0.20 0.35 0.67 0.62 0.96 0.80 0.81 0.90 0.76 0.57 0.58 0.49 0.38 0.29 0.24 0.21 0.17 0.15 0.13
0.00 0.00 0.01 0.00 0.00 0.01 0.07 0.27 0.46 0.61 0.52 0.81 0.67 0.79 0.94 0.89 1.20 1.81 1.25 0.92 0.68 0.45 0.30 0.22 0.21 0.24 0.26 0.19 0.14 0.15 0.16 0.16
0.00 0.00 0.00 0.00 0.01 0.03 0.17 0.63 1.00 0.80 0.88 0.81 0.85 1.30 0.79 0.43 0.32 0.30 0.28 0.22 0.16 0.09 0.06 0.06 0.06 0.06 0.09 0.18 0.26 0.27 0.27 0.24
0.00 0.00 0.00 0.00 0.01 0.04 0.11 0.35 0.56 0.55 0.57 0.55 0.50 0.47 0.48 0.31 0.26 0.22 0.23 0.20 0.19 0.13 0.10 0.11 0.09 0.08 0.08 0.09 0.10 0.08 0.08 0.12
0.00 0.00 0.00 0.00 0.00 0.00 0.01 0.09 0.13 0.16 0.19 0.17 0.17 0.17 0.15 0.13 0.14 0.08 0.07 0.04 0.04 0.07 0.09 0.11 0.12 0.11 0.13 0.11 0.08 0.07 0.07 0.08
0.00 0.00 0.00 0.00 0.00 0.01 0.04 0.06 0.09 0.08 0.16 0.13 0.11 0.12 0.13 0.10 0.08 0.09 0.06 0.05 0.07 0.06 0.06 0.07 0.07 0.07 0.16 0.11 0.06 0.04 0.04 0.06
0.00 0.00 0.02 0.11 0.04 0.04 0.02 0.05 0.06 0.08 0.08 0.06 0.07 0.10 0.09 0.10 0.08 0.08 0.13 0.13 0.11 0.09 0.09 0.07 0.07 0.06 0.13 0.07 0.08 0.04 0.06 0.07
0.00 0.00 0.08 0.06 0.01 0.01 0.01 0.02 0.02 0.02 0.03 0.03 0.04 0.07 0.07 0.05 0.05 0.04 0.06 0.11 0.13 0.10 0.09 0.10 0.10 0.11 0.14 0.08 0.09 0.03 0.04 0.05

GFSFLT1_prec_precacc24_084.txt.gz
Total_Precipitation_Accumulation
0.00 0.00 0.00 0.00 0.00 0.01 0.04 0.11 0.28 0.42 0.16 0.11 0.31 0.51 0.45 0.33 0.17 0.13 0.15 0.10 0.12 0.09 0.12 0.07 0.03 0.03 0.00 0.00 0.00 0.00 0.00 0.00
0.00 0.00 0.00 0.00 0.00 0.01 0.02 0.04 0.05 0.16 0.12 0.06 0.21 0.40 0.46 0.31 0.18 0.07 0.07 0.10 0.05 0.07 0.08 0.06 0.03 0.02 0.01 0.01 0.01 0.00 0.00 0.00
0.00 0.00 0.00 0.00 0.00 0.00 0.02 0.01 0.01 0.02 0.03 0.03 0.06 0.15 0.30 0.22 0.19 0.03 0.03 0.02 0.05 0.04 0.05 0.12 0.09 0.06 0.02 0.02 0.02 0.02 0.03 0.02
0.00 0.00 0.00 0.00 0.00 0.00 0.01 0.01 0.01 0.01 0.02 0.04 0.08 0.21 0.30 0.23 0.20 0.04 0.02 0.02 0.02 0.04 0.13 0.14 0.09 0.06 0.04 0.02 0.01 0.00 0.01 0.03
0.00 0.00 0.00 0.00 0.00 0.00 0.00 0.00 0.01 0.01 0.01 0.02 0.03 0.07 0.15 0.08 0.04 0.04 0.02 0.01 0.02 0.02 0.07 0.07 0.07 0.04 0.04 0.06 0.05 0.04 0.07 0.11
0.00 0.00 0.00 0.00 0.00 0.00 0.00 0.01 0.00 0.01 0.00 0.00 0.01 0.02 0.04 0.07 0.06 0.03 0.01 0.00 0.01 0.01 0.02 0.02 0.02 0.05 0.08 0.09 0.10 0.18 0.25 0.34
0.00 0.00 0.00 0.00 0.00 0.00 0.00 0.00 0.00 0.01 0.00 0.01 0.01 0.01 0.03 0.06 0.03 0.02 0.00 0.00 0.01 0.03 0.01 0.02 0.02 0.05 0.07 0.13 0.28 0.31 0.24 0.36
0.00 0.00 0.00 0.00 0.00 0.00 0.00 0.00 0.00 0.00 0.01 0.01 0.01 0.01 0.01 0.03 0.03 0.02 0.00 0.00 0.01 0.07 0.12 0.11 0.09 0.07 0.16 0.24 0.32 0.27 0.32 0.37
0.00 0.00 0.00 0.00 0.00 0.00 0.00 0.00 0.00 0.00 0.00 0.00 0.01 0.02 0.04 0.01 0.07 0.05 0.04 0.05 0.07 0.13 0.22 0.30 0.26 0.20 0.20 0.27 0.28 0.23 0.31 0.32
0.00 0.01 0.00 0.00 0.01 0.00 0.00 0.00 0.00 0.00 0.00 0.00 0.00 0.03 0.04 0.00 0.08 0.29 0.16 0.18 0.16 0.18 0.23 0.22 0.23 0.17 0.18 0.33 0.42 0.31 0.26 0.24
0.00 0.00 0.00 0.00 0.01 0.05 0.09 0.05 0.01 0.00 0.00 0.00 0.00 0.01 0.09 0.15 0.28 0.66 0.89 0.78 0.59 0.33 0.38 0.34 0.22 0.12 0.11 0.13 0.20 0.20 0.17 0.12
0.00 0.00 0.01 0.00 0.00 0.04 0.12 0.21 0.20 0.06 0.04 0.03 0.07 0.07 0.08 0.37 0.51 0.86 0.71 0.75 0.87 0.74 0.55 0.53 0.43 0.33 0.24 0.19 0.16 0.14 0.12 0.12
0.00 0.00 0.01 0.00 0.00 0.01 0.07 0.27 0.46 0.60 0.44 0.54 0.50 0.51 0.80 0.79 1.13 1.76 1.21 0.91 0.67 0.44 0.28 0.18 0.16 0.17 0.19 0.16 0.12 0.12 0.14 0.16
0.00 0.00 0.00 0.00 0.01 0.03 0.16 0.62 1.00 0.71 0.65 0.67 0.63 1.06 0.74 0.38 0.28 0.27 0.27 0.20 0.14 0.06 0.04 0.05 0.05 0.05 0.08 0.16 0.23 0.24 0.25 0.24
0.00 0.00 0.00 0.00 0.01 0.04 0.10 0.34 0.53 0.52 0.53 0.46 0.43 0.44 0.43 0.28 0.24 0.19 0.21 0.20 0.18 0.12 0.10 0.10 0.07 0.06 0.06 0.06 0.08 0.08 0.08 0.12
0.00 0.00 0.00 0.00 0.00 0.00 0.01 0.07 0.12 0.13 0.14 0.14 0.12 0.16 0.11 0.12 0.12 0.07 0.07 0.04 0.04 0.07 0.09 0.11 0.12 0.10 0.10 0.09 0.07 0.07 0.07 0.08
0.00 0.00 0.00 0.00 0.00 0.00 0.01 0.03 0.07 0.06 0.07 0.08 0.08 0.09 0.12 0.09 0.09 0.10 0.06 0.05 0.07 0.06 0.06 0.07 0.06 0.06 0.14 0.10 0.06 0.04 0.04 0.06
0.00 0.00 0.00 0.03 0.00 0.01 0.01 0.02 0.03 0.05 0.05 0.06 0.07 0.10 0.09 0.10 0.08 0.09 0.14 0.16 0.12 0.09 0.09 0.07 0.07 0.06 0.12 0.08 0.08 0.04 0.06 0.07
0.00 0.00 0.03 0.03 0.00 0.00 0.00 0.00 0.01 0.01 0.02 0.03 0.04 0.07 0.07 0.05 0.05 0.04 0.07 0.12 0.14 0.11 0.10 0.11 0.10 0.11 0.14 0.09 0.11 0.04 0.04 0.05

GFSFLT1_prec_precacc24_087.txt.gz
Total_Precipitation_Accumulation
0.00 0.00 0.00 0.00 0.00 0.01 0.04 0.11 0.28 0.43 0.16 0.11 0.31 0.51 0.45 0.34 0.18 0.15 0.17 0.11 0.19 0.19 0.16 0.10 0.08 0.05 0.01 0.00 0.00 0.00 0.00 0.00
0.00 0.00 0.00 0.00 0.00 0.01 0.02 0.04 0.05 0.16 0.12 0.06 0.21 0.40 0.46 0.31 0.21 0.12 0.15 0.16 0.15 0.26 0.27 0.17 0.10 0.02 0.01 0.01 0.01 0.00 0.00 0.00
0.00 0.00 0.00 0.00 0.00 0.00 0.02 0.01 0.01 0.02 0.03 0.03 0.06 0.15 0.30 0.22 0.20 0.05 0.07 0.14 0.25 0.19 0.12 0.17 0.11 0.02 0.01 0.01 0.01 0.02 0.03 0.02
0.00 0.00 0.00 0.00 0.00 0.00 0.01 0.01 0.01 0.01 0.02 0.04 0.08 0.21 0.30 0.23 0.20 0.05 0.03 0.05 0.08 0.12 0.09 0.08 0.04 0.02 0.02 0.02 0.01 0.00 0.01 0.02
0.00 0.00 0.00 0.00 0.00 0.00 0.00 0.00 0.01 0.01 0.01 0.02 0.03 0.07 0.15 0.08 0.04 0.04 0.02 0.01 0.02 0.01 0.01 0.02 0.03 0.03 0.03 0.03 0.04 0.03 0.04 0.05
0.00 0.00 0.00 0.00 0.00 0.00 0.00 0.01 0.00 0.01 0.01 0.00 0.01 0.02 0.04 0.07 0.06 0.03 0.01 0.00 0.01 0.01 0.02 0.02 0.01 0.04 0.08 0.09 0.08 0.08 0.09 0.15
0.00 0.00 0.00 0.00 0.00 0.00 0.00 0.00 0.00 0.01 0.00 0.00 0.01 0.01 0.02 0.05 0.03 0.02 0.00 0.00 0.00 0.00 0.00 0.02 0.02 0.04 0.08 0.12 0.21 0.14 0.12 0.23
0.00 0.00 0.00 0.00 0.00 0.00 0.00 0.00 0.00 0.01 0.01 0.00 0.01 0.01 0.00 0.00 0.01 0.00 0.00 0.00 0.00 0.01 0.04 0.08 0.09 0.07 0.16 0.24 0.31 0.24 0.28 0.32
0.00 0.00 0.00 0.00 0.00 0.00 0.00 0.00 0.00 0.00 0.01 0.00 0.01 0.01 0.00 0.00 0.01 0.01 0.03 0.02 0.00 0.00 0.05 0.16 0.21 0.19 0.20 0.27 0.29 0.24 0.31 0.26
0.00 0.00 0.00 0.00 0.00 0.00 0.00 0.00 0.00 0.00 0.00 0.00 0.00 0.01 0.01 0.00 0.05 0.10 0.06 0.12 0.11 0.07 0.06 0.12 0.20 0.16 0.18 0.33 0.41 0.27 0.20 0.21
0.00 0.00 0.00 0.00 0.01 0.05 0.08 0.03 0.00 0.00 0.00 0.00 0.00 0.00 0.04 0.11 0.12 0.19 0.26 0.31 0.36 0.25 0.31 0.32 0.21 0.12 0.10 0.10 0.12 0.13 0.14 0.12
0.00 0.00 0.00 0.00 0.00 0.04 0.11 0.17 0.16 0.05 0.00 0.00 0.00 0.00 0.02 0.18 0.23 0.29 0.43 0.60 0.77 0.69 0.54 0.53 0.42 0.32 0.23 0.16 0.12 0.11 0.11 0.11
0.00 0.00 0.00 0.00 0.00 0.01 0.07 0.25 0.39 0.45 0.28 0.14 0.10 0.08 0.31 0.29 0.51 1.21 1.03 0.85 0.59 0.41 0.28 0.17 0.15 0.16 0.19 0.16 0.12 0.11 0.13 0.15
0.00 0.00 0.00 0.00 0.00 0.02 0.06 0.23 0.31 0.25 0.25 0.32 0.42 0.70 0.50 0.20 0.19 0.21 0.23 0.17 0.13 0.06 0.03 0.04 0.05 0.05 0.07 0.13 0.19 0.22 0.25 0.23
0.00 0.00 0.00 0.01 0.00 0.01 0.01 0.08 0.29 0.32 0.29 0.30 0.33 0.33 0.37 0.27 0.21 0.18 0.20 0.19 0.17 0.12 0.10 0.10 0.06 0.04 0.04 0.05 0.07 0.07 0.08 0.12
0.00 0.00 0.00 0.04 0.05 0.02 0.01 0.05 0.06 0.06 0.09 0.10 0.10 0.14 0.09 0.09 0.10 0.06 0.05 0.03 0.03 0.07 0.09 0.11 0.11 0.10 0.10 0.09 0.07 0.07 0.07 0.08
0.00 0.00 0.00 0.00 0.00 0.02 0.02 0.03 0.04 0.04 0.04 0.05 0.06 0.09 0.12 0.08 0.08 0.10 0.06 0.05 0.07 0.06 0.06 0.07 0.06 0.06 0.14 0.10 0.06 0.04 0.04 0.06
0.00 0.00 0.00 0.00 0.00 0.00 0.01 0.04 0.04 0.03 0.03 0.05 0.06 0.10 0.08 0.09 0.08 0.09 0.14 0.16 0.12 0.09 0.09 0.07 0.07 0.06 0.12 0.08 0.08 0.04 0.06 0.07
0.00 0.00 0.00 0.00 0.00 0.00 0.00 0.02 0.03 0.03 0.05 0.04 0.04 0.07 0.09 0.09 0.05 0.04 0.07 0.12 0.14 0.11 0.11 0.12 0.10 0.11 0.14 0.09 0.11 0.04 0.04 0.06

GFSFLT1_prec_precacc24_093.txt.gz
Total_Precipitation_Accumulation
0.00 0.00 0.00 0.00 0.00 0.01 0.02 0.04 0.22 0.38 0.15 0.10 0.31 0.51 0.45 0.34 0.19 0.24 0.32 0.23 0.31 0.29 0.27 0.21 0.10 0.05 0.01 0.00 0.00 0.00 0.00 0.00
0.00 0.00 0.00 0.00 0.00 0.01 0.02 0.02 0.05 0.15 0.12 0.06 0.20 0.39 0.46 0.31 0.21 0.13 0.29 0.41 0.33 0.49 0.47 0.38 0.23 0.03 0.01 0.01 0.01 0.00 0.00 0.00
0.00 0.00 0.00 0.00 0.00 0.00 0.02 0.01 0.01 0.02 0.03 0.03 0.06 0.15 0.30 0.23 0.20 0.05 0.08 0.26 0.50 0.41 0.33 0.38 0.38 0.06 0.01 0.00 0.01 0.02 0.03 0.02
0.00 0.00 0.00 0.00 0.00 0.00 0.01 0.01 0.01 0.01 0.02 0.04 0.08 0.21 0.30 0.24 0.20 0.06 0.05 0.10 0.19 0.35 0.33 0.30 0.18 0.11 0.03 0.01 0.00 0.00 0.01 0.02
0.00 0.00 0.00 0.00 0.00 0.00 0.00 0.00 0.01 0.01 0.01 0.02 0.03 0.07 0.15 0.08 0.04 0.04 0.04 0.10 0.16 0.23 0.29 0.32 0.23 0.10 0.05 0.03 0.03 0.02 0.02 0.02
0.00 0.00 0.00 0.00 0.00 0.00 0.00 0.01 0.00 0.01 0.01 0.01 0.02 0.02 0.04 0.07 0.06 0.04 0.02 0.02 0.09 0.16 0.25 0.35 0.35 0.19 0.14 0.10 0.08 0.06 0.06 0.11
0.00 0.00 0.00 0.00 0.00 0.00 0.00 0.00 0.00 0.01 0.01 0.01 0.01 0.01 0.02 0.05 0.03 0.02 0.01 0.01 0.04 0.06 0.16 0.18 0.28 0.26 0.28 0.23 0.22 0.13 0.10 0.20
0.00 0.00 0.00 0.00 0.00 0.00 0.00 0.00 0.00 0.01 0.01 0.00 0.01 0.01 0.00 0.00 0.01 0.00 0.00 0.00 0.01 0.03 0.03 0.03 0.07 0.10 0.17 0.25 0.32 0.23 0.24 0.29
0.00 0.00 0.00 0.00 0.00 0.00 0.00 0.00 0.00 0.00 0.01 0.00 0.01 0.01 0.00 0.00 0.00 0.00 0.00 0.00 0.00 0.00 0.00 0.01 0.01 0.02 0.05 0.15 0.22 0.19 0.28 0.23
0.00 0.00 0.00 0.00 0.00 0.00 0.00 0.00 0.00 0.00 0.00 0.00 0.00 0.01 0.00 0.00 0.00 0.00 0.00 0.00 0.00 0.00 0.00 0.01 0.00 0.01 0.03 0.23 0.37 0.26 0.16 0.11
0.00 0.00 0.00 0.00 0.00 0.00 0.01 0.01 0.00 0.00 0.00 0.00 0.00 0.00 0.01 0.00 0.00 0.00 0.00 0.00 0.00 0.00 0.02 0.06 0.04 0.01 0.02 0.08 0.12 0.13 0.12 0.11
0.00 0.00 0.00 0.00 0.00 0.00 0.00 0.04 0.08 0.03 0.00 0.00 0.00 0.00 0.00 0.00 0.00 0.00 0.00 0.00 0.00 0.03 0.12 0.21 0.33 0.23 0.16 0.13 0.12 0.11 0.11 0.10
0.00 0.00 0.00 0.00 0.00 0.00 0.01 0.03 0.05 0.11 0.10 0.01 0.00 0.00 0.00 0.00 0.00 0.00 0.00 0.00 0.02 0.02 0.06 0.09 0.12 0.15 0.18 0.15 0.12 0.09 0.11 0.13
0.00 0.00 0.00 0.00 0.00 0.00 0.00 0.00 0.03 0.06 0.07 0.03 0.01 0.00 0.00 0.00 0.00 0.01 0.01 0.02 0.04 0.02 0.01 0.01 0.01 0.02 0.04 0.10 0.16 0.19 0.21 0.20
0.01 0.01 0.04 0.09 0.09 0.07 0.05 0.03 0.01 0.03 0.08 0.03 0.01 0.02 0.00 0.00 0.00 0.03 0.12 0.12 0.09 0.08 0.05 0.05 0.04 0.02 0.01 0.01 0.04 0.06 0.07 0.12
0.01 0.02 0.02 0.09 0.16 0.16 0.14 0.10 0.10 0.08 0.08 0.03 0.05 0.06 0.01 0.00 0.01 0.01 0.03 0.01 0.01 0.03 0.04 0.07 0.09 0.07 0.07 0.07 0.06 0.06 0.06 0.07
0.00 0.00 0.00 0.00 0.00 0.02 0.05 0.03 0.06 0.06 0.03 0.08 0.12 0.14 0.12 0.07 0.05 0.05 0.03 0.02 0.04 0.04 0.02 0.04 0.05 0.05 0.10 0.07 0.05 0.03 0.04 0.05
0.00 0.00 0.00 0.00 0.00 0.00 0.02 0.05 0.04 0.06 0.12 0.14 0.11 0.15 0.15 0.16 0.16 0.12 0.18 0.20 0.12 0.08 0.08 0.06 0.06 0.06 0.11 0.07 0.08 0.04 0.06 0.06
0.01 0.00 0.00 0.00 0.00 0.00 0.00 0.02 0.03 0.04 0.11 0.16 0.13 0.09 0.11 0.14 0.12 0.11 0.15 0.20 0.17 0.15 0.15 0.17 0.14 0.13 0.15 0.10 0.11 0.04 0.04 0.06

GFSFLT1_prec_precacc24_096.txt.gz
Total_Precipitation_Accumulation
0.00 0.00 0.00 0.00 0.00 0.01 0.02 0.03 0.09 0.18 0.10 0.07 0.23 0.42 0.36 0.27 0.16 0.25 0.33 0.25 0.32 0.30 0.29 0.24 0.10 0.06 0.01 0.00 0.00 0.00 0.00 0.00
0.00 0.00 0.00 0.00 0.00 0.01 0.01 0.01 0.02 0.07 0.04 0.05 0.15 0.33 0.36 0.25 0.18 0.13 0.35 0.46 0.36 0.51 0.47 0.47 0.36 0.05 0.02 0.01 0.01 0.00 0.00 0.00
0.00 0.00 0.00 0.00 0.00 0.00 0.01 0.01 0.01 0.01 0.02 0.03 0.03 0.10 0.26 0.21 0.19 0.04 0.08 0.37 0.62 0.46 0.42 0.44 0.53 0.22 0.05 0.00 0.01 0.02 0.03 0.02
0.00 0.00 0.00 0.00 0.00 0.00 0.01 0.01 0.01 0.01 0.02 0.04 0.07 0.19 0.28 0.22 0.20 0.06 0.04 0.10 0.27 0.52 0.38 0.38 0.42 0.24 0.11 0.04 0.01 0.00 0.01 0.02
0.00 0.00 0.00 0.00 0.00 0.00 0.00 0.00 0.01 0.01 0.01 0.02 0.03 0.07 0.14 0.07 0.04 0.04 0.03 0.09 0.15 0.28 0.47 0.37 0.33 0.25 0.14 0.05 0.04 0.02 0.02 0.01
0.00 0.00 0.00 0.00 0.00 0.00 0.00 0.01 0.00 0.01 0.01 0.01 0.02 0.02 0.04 0.07 0.06 0.04 0.02 0.03 0.09 0.17 0.29 0.41 0.40 0.34 0.27 0.13 0.07 0.06 0.05 0.10
0.00 0.00 0.00 0.00 0.00 0.00 0.00 0.00 0.01 0.01 0.01 0.01 0.01 0.01 0.02 0.05 0.03 0.02 0.01 0.01 0.04 0.06 0.17 0.22 0.35 0.42 0.38 0.29 0.19 0.12 0.09 0.20
0.00 0.00 0.00 0.00 0.00 0.00 0.00 0.00 0.00 0.01 0.01 0.00 0.01 0.01 0.00 0.00 0.01 0.00 0.00 0.01 0.01 0.03 0.03 0.04 0.11 0.20 0.46 0.45 0.44 0.29 0.22 0.24
0.00 0.00 0.00 0.00 0.00 0.00 0.00 0.00 0.00 0.00 0.01 0.00 0.01 0.01 0.00 0.00 0.00 0.00 0.00 0.00 0.00 0.00 0.00 0.01 0.02 0.05 0.10 0.23 0.26 0.20 0.23 0.17
0.00 0.00 0.00 0.00 0.00 0.00 0.00 0.00 0.00 0.00 0.00 0.00 0.00 0.01 0.00 0.00 0.00 0.00 0.00 0.00 0.00 0.00 0.00 0.01 0.00 0.01 0.02 0.06 0.14 0.09 0.09 0.11
0.00 0.00 0.00 0.00 0.00 0.00 0.00 0.00 0.00 0.00 0.00 0.00 0.00 0.00 0.01 0.00 0.00 0.00 0.00 0.00 0.00 0.00 0.00 0.00 0.00 0.00 0.01 0.03 0.05 0.07 0.10 0.11
0.00 0.00 0.00 0.00 0.00 0.00 0.00 0.00 0.02 0.02 0.00 0.00 0.00 0.00 0.00 0.00 0.00 0.00 0.00 0.00 0.00 0.00 0.00 0.00 0.04 0.08 0.09 0.08 0.07 0.07 0.09 0.09
0.00 0.00 0.00 0.00 0.00 0.00 0.00 0.00 0.00 0.07 0.10 0.01 0.00 0.00 0.00 0.00 0.00 0.00 0.00 0.00 0.00 0.00 0.00 0.01 0.03 0.05 0.09 0.10 0.08 0.07 0.09 0.12
0.00 0.00 0.00 0.00 0.00 0.00 0.02 0.04 0.05 0.03 0.03 0.02 0.01 0.00 0.00 0.00 0.00 0.00 0.00 0.00 0.00 0.00 0.00 0.00 0.00 0.00 0.02 0.09 0.13 0.14 0.17 0.17
0.03 0.01 0.05 0.09 0.11 0.11 0.10 0.09 0.07 0.06 0.06 0.06 0.02 0.01 0.00 0.00 0.00 0.00 0.00 0.00 0.00 0.00 0.00 0.00 0.01 0.01 0.00 0.00 0.02 0.02 0.04 0.07
0.05 0.09 0.11 0.17 0.23 0.23 0.22 0.17 0.17 0.14 0.13 0.05 0.05 0.05 0.02 0.00 0.00 0.00 0.00 0.00 0.00 0.00 0.00 0.01 0.03 0.05 0.05 0.05 0.04 0.03 0.02 0.02
0.00 0.00 0.01 0.02 0.03 0.05 0.06 0.04 0.06 0.08 0.06 0.10 0.13 0.10 0.08 0.05 0.05 0.03 0.01 0.00 0.01 0.01 0.01 0.01 0.02 0.02 0.03 0.02 0.02 0.01 0.02 0.03
0.02 0.00 0.00 0.01 0.01 0.02 0.02 0.05 0.04 0.07 0.13 0.15 0.11 0.13 0.12 0.11 0.14 0.09 0.10 0.13 0.05 0.04 0.05 0.03 0.01 0.02 0.05 0.04 0.03 0.02 0.04 0.05
0.11 0.03 0.01 0.00 0.00 0.00 0.00 0.02 0.03 0.04 0.11 0.16 0.14 0.08 0.09 0.12 0.10 0.10 0.12 0.13 0.11 0.10 0.13 0.18 0.14 0.13 0.13 0.08 0.10 0.04 0.03 0.05